SCP
0 0 0 0 0 0 0 0 0 0 0 0 0 0 0 0 0 0 0 0 0 0 0 0 0 0 0 0 0 0 0 0 0 0 0 0 0 0 0 0 0 0 0
0 0 0 0 0 0 0 0 0 0 0 0 0 0 0 0 0 0 0 0 0 0 0 0 0 0 0 0 0 0 0 0 0 0 0 0 0 0 0 0 0 0 0
0 0 0 0 0 0 0 0 0 0 0 0 0 0 0 0 0 0 0 0 0 0 0 0 0 0 0 0 0 0 0 0 0 0 0 0 0 0 0 0 0 0 0
0 0 0 0 0 0 0 0 0 0 0 0 0 0 0 0 0 0 0 0 0 0 0 0 0 0 0 0 0 0 0 0 0 0 0 0 0 0 0 0 0 0 0
0 0 0 0 0 0 0 0 0 0 0 0 0 0 0 0 0 0 0 0 0 0 0 0 0 0 0 0 0 0 0 0 0 0 0 0 0 0 0 0 0 0 0
0 0 0 0 0 0 0 0 0 0 0 0 0 0 0 0 0 0 0 0 0 0 0 0 0 0 0 0 0 0 0 0 0 0 0 0 0 0 0 0 0 0 0
0 0 0 0 0 0 0 0 0 0 0 0 0 0 0 0 0 0 0 0 0 0 0 0 0 0 0 0 0 0 0 0 0 0 0 0 0 0 0 0 0 0 0
0 0 0 0 0 0 0 0 0 0 0 0 0 0 0 0 0 0 0 0 0 0 0 0 0 0 0 0 0 0 0 0 0 0 0 0 0 0 0 0 0 0 0
0 0 0 0 0 0 0 0 0 0 0 0 0 0 0 0 0 0 0 0 0 0 0 0 0 0 0 0 0 0 0 0 0 0 0 0 0 -0 -0 -0 0 -0 0
0 0 0 0 0 0 0 0 0 0 0 0 0 0 0 0 0 0 0 0 0 0 0 0 0 0 0 0 0 0 0 0 0 0 0 -0 -0 0 0 -0 -0 0 0
0 0 0 0 0 0 0 0 0 0 0 0 0 0 0 0 0 0 0 0 0 0 0 0 0 0 0 0 0 0 0 0 0 0 0 0 0 0 0 0 -0 0 0
0 0 0 0 0 0 0 0 0 0 0 0 0 0 0 0 0 0 0 0 0 0 0 0 0 0 0 0 0 0 0 0 0 0 0 0 0 0 0 0 0 0 0
0 0 0 0 0 0 0 0 0 0 0 0 0 0 0 0 0 0 0 0 0 0 0 0 0 0 0 0 0 0 0 0 0 0 0 0 0 0 0 0 0 0 0
0 0 0 0 0 0 0 0 0 0 0 0 0 0 0 0 0 0 0 0 0 0 0 0 0 0 0 0 0 0 0 0 0 0 0 0 0 0 0 0 0 0 0
0 0 0 0 0 0 0 0 0 0 0 0 0 0 0 0 0 0 0 0 0 0 0 0 0 0 0 0 0 0 0 0 0 0 0 0 0 0 0 0 0 0 0
0 0 0 0 0 0 0 0 0 0 0 0 0 0 0 0 0 0 0 0 0 0 0 0 0 0 0 0 0 0 0 0 0 0 0 0 0 0 0 0 0 0 0
0 0 0 0 0 0 0 0 0 0 0 0 0 0 0 0 0 0 0 0 0 0 0 0 0 0 0 0 0 0 0 0 0 0 0 0 0 0 0 0 0 0 0
0 0 0 0 0 0 0 0 0 0 0 0 0 0 0 0 0 0 0 0 0 0 0 0 0 0 0 0 0 0 0 0 0 0 0 0 0 0 0 0 0 0 0
0 0 0 0 0 0 0 0 0 0 0 0 0 0 0 0 0 0 0 0 0 0 0 0 0 0 0 0 0 0 0 0 0 0 0 0 0 0 0 0 0 0 0
0 0 0 0 0 0 0 0 0 0 0 0 0 0 0 0 0 0 0 0 0 0 0 0 0 0 0 0 0 0 0 0 0 0 0 0 0 0 0 0 0 0 0
0 0 0 0 0 0 0 0 0 0 0 0 0 0 0 0 0 0 0 0 0 0 0 0 0 0 0 0 0 0 0 0 0 0 0 0 0 0 0 0 0 0 0
0 0 0 0 0 0 0 0 0 0 0 0 0 0 0 0 0 0 0 0 0 0 0 0 0 0 0 0 0 0 0 0 0 0 0 0 0 0 0 0 0 0 0
0 0 0 0 0 0 0 0 0 0 0 0 0 0 0 0 0 0 0 0 0 0 0 0 0 0 0 0 0 0 0 0 0 0 0 0 0 0 0 0 0 0 0
0 0 0 0 0 0 0 0 0 0 0 0 0 0 0 0 0 0 0 0 0 0 0 0 0 0 0 0 0 0 0 0 0 0 0 0 0 0 0 0 0 0 0
0 0 0 0 0 0 0 0 0 0 0 0 0 0 0 0 0 0 0 0 0 0 0 0 0 0 0 0 0 0 0 0 0 0 0 0 0 0 0 0 0 0 0
0 0 0 0 0 0 0 0 0 0 0 0 0 0 0 0 0 0 0 0 0 0 0 0 0 0 0 0 0 0 0 0 0 0 0 0 0 0 0 0 0 0 0
Wind_Speed_500mb
35 33 33 35 33 33 31 26 22 19 17 15 15 13 12 10 11 9 5 5 7 10 11 11 14 9 9 9 8 9 10 10 10 12 12 15 13 14 11 8 6 5 6
41 40 40 40 38 37 35 30 26 21 19 20 18 17 16 14 14 13 12 10 10 9 10 9 10 10 9 9 12 14 14 13 13 16 19 22 21 20 18 18 17 15 10
46 48 46 45 41 40 38 35 31 27 25 24 21 21 19 20 18 15 15 16 15 14 13 13 11 10 10 12 13 14 16 18 19 20 21 21 25 24 22 20 21 19 17
50 51 51 50 44 42 41 39 37 34 30 29 25 24 23 24 22 19 16 16 15 14 14 16 16 15 16 18 20 23 25 25 26 26 23 25 28 27 22 27 26 23 21
53 57 54 52 51 48 48 44 43 40 36 34 32 27 25 28 28 25 20 18 19 18 15 15 15 18 23 24 26 29 33 34 36 35 34 31 27 29 29 29 31 29 29
58 61 59 55 55 55 53 51 49 46 42 36 33 32 31 35 36 36 29 24 22 23 22 19 17 19 26 27 30 33 37 39 41 44 40 43 38 31 33 36 33 31 32
64 64 65 62 61 62 58 54 51 50 49 41 38 35 38 40 45 39 32 26 24 24 26 26 24 26 31 32 33 35 37 38 40 42 47 44 43 37 37 40 39 38 35
69 68 68 70 69 66 62 61 58 57 54 49 51 42 32 42 47 35 28 23 23 26 30 28 29 31 33 34 33 34 33 33 36 37 48 48 55 53 46 44 40 48 44
77 73 73 73 75 72 69 68 64 64 62 57 59 49 24 28 17 26 29 26 29 33 31 31 34 33 34 35 33 31 30 30 35 35 37 42 51 59 56 57 52 50 53
86 82 77 75 78 77 76 74 68 67 66 66 63 67 65 53 28 18 27 28 31 39 41 41 36 37 37 39 30 29 27 28 31 35 34 33 35 42 50 64 65 55 56
93 90 85 82 82 81 82 79 75 74 73 73 73 71 67 66 63 59 53 49 50 48 46 38 39 40 41 38 30 27 29 27 32 38 39 37 36 39 46 47 67 66 62
95 96 93 91 87 87 88 85 81 79 78 77 79 77 76 73 71 70 70 71 66 61 56 52 49 46 36 37 34 34 32 32 35 36 39 41 39 44 48 49 57 58 66
98 98 98 98 96 93 91 90 89 86 84 87 86 83 78 79 76 71 70 72 69 70 66 61 55 46 40 32 36 29 33 37 42 45 46 51 53 49 47 49 51 58 62
104 97 97 98 99 96 94 94 95 93 92 93 92 87 83 82 79 78 80 71 65 67 68 70 52 41 39 36 35 33 35 47 50 51 58 57 58 50 51 48 49 52 55
111 107 102 96 98 97 96 96 98 99 98 98 96 93 89 87 84 81 80 76 72 59 58 61 47 42 38 41 36 38 49 48 51 54 55 64 59 52 50 48 51 51 53
113 111 108 102 96 97 93 97 100 99 100 100 99 96 93 90 88 88 84 74 77 80 69 68 57 48 47 45 42 42 49 53 55 58 63 60 53 52 51 52 53 52 52
113 111 111 108 102 99 94 95 99 100 100 100 101 99 96 92 91 88 80 77 81 77 79 78 67 59 57 51 53 50 53 55 59 65 60 59 61 47 50 49 47 47 45
114 112 112 110 107 106 102 100 100 100 101 105 101 99 98 93 91 88 85 81 82 79 76 74 68 59 49 54 51 51 54 56 63 56 56 46 40 30 27 35 41 43 44
114 112 112 115 113 110 107 106 102 100 99 99 98 98 98 94 87 87 84 83 78 70 70 70 62 62 62 53 54 57 60 61 60 46 38 36 26 24 26 29 32 35 43
109 114 115 115 115 112 111 109 106 98 97 96 96 96 95 87 81 79 79 77 70 71 65 66 64 67 63 56 63 63 62 57 39 31 30 31 26 25 29 25 27 29 31
109 106 107 112 111 112 114 110 108 100 98 97 94 94 91 84 78 75 73 69 68 68 62 71 67 67 65 64 62 64 60 41 30 26 31 24 24 25 24 23 23 25 27
105 107 107 106 109 110 112 111 105 103 99 98 96 94 89 83 77 72 68 68 65 72 70 75 68 72 69 66 68 61 41 33 27 26 28 21 24 19 17 17 18 18 19
92 102 104 103 107 110 108 106 105 104 100 100 98 95 92 84 77 73 73 73 67 71 70 69 70 69 68 68 58 43 35 32 28 23 27 21 18 16 13 12 11 11 12
85 94 98 103 106 107 105 103 101 101 102 98 98 96 89 84 82 80 83 78 75 74 70 69 72 66 57 47 39 34 31 28 23 19 22 20 17 10 13 10 11 7 2
84 89 92 99 103 106 103 96 93 97 104 101 98 94 89 87 84 83 81 77 72 74 72 68 60 53 48 44 41 37 33 28 24 22 23 23 19 13 11 8 11 4 22
79 82 90 97 99 104 102 98 96 100 104 102 95 91 89 86 81 81 78 75 75 72 70 63 59 55 48 42 36 33 31 29 24 18 21 23 17 9 9 15 15 20 21
Wind_Direction_500mb
220 217 215 213 212 214 217 219 217 219 221 219 227 235 237 251 268 295 317 352 357 5 4 2 20 34 42 42 33 21 17 8 353 337 329 318 320 317 286 289 264 260 342
224 225 218 219 216 220 224 225 225 225 229 232 230 237 245 248 251 269 293 307 309 321 332 328 346 11 36 34 38 35 25 12 353 338 336 324 319 313 305 291 288 283 298
229 225 225 223 221 222 224 227 227 229 230 236 239 242 248 257 260 261 276 290 289 284 290 294 295 299 315 322 337 338 341 340 337 329 315 314 308 312 307 284 279 276 282
234 228 226 228 227 227 228 229 230 232 234 239 244 250 255 252 256 255 257 265 279 279 267 267 274 274 280 290 303 310 317 319 318 316 310 306 304 299 290 289 276 276 263
237 234 229 229 229 229 230 231 233 234 238 242 246 245 254 250 256 262 252 255 258 266 267 263 263 264 269 279 289 294 298 304 304 302 308 303 296 288 268 280 280 287 266
237 237 235 232 230 230 230 230 233 235 238 239 242 247 245 249 252 257 266 258 249 253 259 260 261 267 271 277 283 288 288 286 292 290 299 302 304 298 253 259 266 260 258
239 236 237 236 233 232 234 234 234 234 237 236 239 243 245 251 254 265 269 266 246 245 249 253 260 268 275 280 286 290 289 287 283 273 282 290 279 293 257 257 252 249 247
240 238 238 237 235 234 235 234 232 234 236 234 233 234 250 261 265 265 250 247 250 241 256 258 263 269 275 281 287 287 292 291 288 274 267 269 270 277 274 262 252 254 248
242 240 238 238 238 236 236 237 234 234 237 234 233 227 219 237 245 256 258 246 248 254 256 260 269 271 278 283 285 284 288 283 286 284 274 261 261 269 268 270 271 261 250
242 241 240 239 239 238 238 239 238 238 238 238 235 237 241 250 255 268 263 251 245 252 258 264 260 270 277 278 274 285 288 284 280 281 276 266 255 259 262 258 267 264 255
243 244 242 240 239 238 241 240 239 237 239 241 241 242 244 248 254 256 270 266 267 270 277 270 280 277 274 279 286 281 287 279 288 282 276 270 269 270 265 249 256 262 257
242 243 243 242 242 241 240 242 242 241 242 244 247 245 246 245 246 247 255 267 274 274 277 277 284 280 273 273 282 280 276 276 285 278 282 280 276 278 274 258 248 254 257
242 241 241 241 241 242 242 242 242 243 243 244 245 248 250 252 254 257 259 265 270 277 279 282 277 285 277 278 278 271 265 277 275 277 283 282 284 280 271 265 263 248 249
252 251 246 245 244 244 244 244 244 245 246 246 248 249 251 254 254 254 256 258 263 269 274 275 285 272 277 272 274 280 273 285 272 285 281 278 283 278 268 264 258 252 254
254 253 252 249 248 245 245 245 246 246 246 248 249 250 252 254 256 257 257 256 259 255 265 273 273 278 278 261 265 263 279 285 281 281 280 281 280 271 266 263 256 257 261
252 251 252 252 250 248 246 246 247 247 247 249 251 251 252 253 255 256 256 256 253 254 256 264 267 272 273 277 284 269 283 285 282 279 283 281 278 273 266 258 259 262 260
251 250 252 253 251 250 248 245 246 247 247 248 249 251 253 254 255 257 253 250 252 251 254 258 265 260 269 282 274 277 282 281 277 280 278 273 278 277 263 263 263 258 254
252 251 253 253 253 252 251 248 247 246 246 246 248 250 252 252 253 250 251 252 252 252 253 256 259 267 263 275 268 277 281 277 282 281 276 279 280 278 274 269 268 263 256
250 250 250 252 253 253 252 250 249 248 248 248 249 249 251 250 252 247 250 250 251 250 248 251 257 256 277 269 269 277 279 280 284 277 281 285 284 278 271 266 266 263 262
254 253 251 250 252 253 253 252 251 248 248 248 250 250 249 248 251 250 250 250 249 246 247 254 248 262 265 258 268 274 281 284 282 282 284 286 276 264 259 258 265 272 275
255 254 253 252 252 252 251 250 250 247 246 246 246 247 247 248 250 250 248 247 242 244 248 256 243 259 255 258 265 273 276 270 277 272 274 271 273 275 274 274 267 259 261
256 255 252 250 250 250 250 252 251 250 247 245 245 245 245 246 246 245 243 244 246 247 247 243 254 253 257 256 264 267 259 261 268 272 272 278 277 269 276 277 269 259 265
257 255 254 252 250 250 251 250 249 249 246 244 245 244 243 244 244 241 238 241 247 241 248 248 248 253 254 263 261 251 251 252 259 259 273 275 256 274 255 249 260 259 260
256 255 254 253 252 250 250 248 246 244 244 246 245 244 243 243 241 239 236 238 240 245 246 246 250 256 254 250 252 248 244 243 253 253 257 267 259 245 264 265 252 224 193
259 255 252 250 249 250 250 246 243 242 241 242 243 243 243 242 240 239 236 238 242 242 242 248 247 243 242 242 239 239 236 236 236 247 245 250 242 275 251 251 178 225 312
263 259 255 251 249 248 248 245 242 241 240 242 243 243 240 239 238 236 238 240 238 238 247 243 238 238 238 238 234 231 231 231 229 243 242 225 239 250 235 218 219 293 311
Wind_Speed_850mb
35 33 33 35 33 33 31 26 22 19 17 15 15 13 12 10 11 9 5 5 7 10 11 11 14 9 9 9 8 9 10 10 10 12 12 15 13 14 11 8 6 5 6
41 40 40 40 38 37 35 30 26 21 19 20 18 17 16 14 14 13 12 10 10 9 10 9 10 10 9 9 12 14 14 13 13 16 19 22 21 20 18 18 17 15 10
46 48 46 45 41 40 38 35 31 27 25 24 21 21 19 20 18 15 15 16 15 14 13 13 11 10 10 12 13 14 16 18 19 20 21 21 25 24 22 20 21 19 17
50 51 51 50 44 42 41 39 37 34 30 29 25 24 23 24 22 19 16 16 15 14 14 16 16 15 16 18 20 23 25 25 26 26 23 25 28 27 22 27 26 23 21
53 57 54 52 51 48 48 44 43 40 36 34 32 27 25 28 28 25 20 18 19 18 15 15 15 18 23 24 26 29 33 34 36 35 34 31 27 29 29 29 31 29 29
58 61 59 55 55 55 53 51 49 46 42 36 33 32 31 35 36 36 29 24 22 23 22 19 17 19 26 27 30 33 37 39 41 44 40 43 38 31 33 36 33 31 32
64 64 65 62 61 62 58 54 51 50 49 41 38 35 38 40 45 39 32 26 24 24 26 26 24 26 31 32 33 35 37 38 40 42 47 44 43 37 37 40 39 38 35
69 68 68 70 69 66 62 61 58 57 54 49 51 42 32 42 47 35 28 23 23 26 30 28 29 31 33 34 33 34 33 33 36 37 48 48 55 53 46 44 40 48 44
77 73 73 73 75 72 69 68 64 64 62 57 59 49 24 28 17 26 29 26 29 33 31 31 34 33 34 35 33 31 30 30 35 35 37 42 51 59 56 57 52 50 53
86 82 77 75 78 77 76 74 68 67 66 66 63 67 65 53 28 18 27 28 31 39 41 41 36 37 37 39 30 29 27 28 31 35 34 33 35 42 50 64 65 55 56
93 90 85 82 82 81 82 79 75 74 73 73 73 71 67 66 63 59 53 49 50 48 46 38 39 40 41 38 30 27 29 27 32 38 39 37 36 39 46 47 67 66 62
95 96 93 91 87 87 88 85 81 79 78 77 79 77 76 73 71 70 70 71 66 61 56 52 49 46 36 37 34 34 32 32 35 36 39 41 39 44 48 49 57 58 66
98 98 98 98 96 93 91 90 89 86 84 87 86 83 78 79 76 71 70 72 69 70 66 61 55 46 40 32 36 29 33 37 42 45 46 51 53 49 47 49 51 58 62
104 97 97 98 99 96 94 94 95 93 92 93 92 87 83 82 79 78 80 71 65 67 68 70 52 41 39 36 35 33 35 47 50 51 58 57 58 50 51 48 49 52 55
111 107 102 96 98 97 96 96 98 99 98 98 96 93 89 87 84 81 80 76 72 59 58 61 47 42 38 41 36 38 49 48 51 54 55 64 59 52 50 48 51 51 53
113 111 108 102 96 97 93 97 100 99 100 100 99 96 93 90 88 88 84 74 77 80 69 68 57 48 47 45 42 42 49 53 55 58 63 60 53 52 51 52 53 52 52
113 111 111 108 102 99 94 95 99 100 100 100 101 99 96 92 91 88 80 77 81 77 79 78 67 59 57 51 53 50 53 55 59 65 60 59 61 47 50 49 47 47 45
114 112 112 110 107 106 102 100 100 100 101 105 101 99 98 93 91 88 85 81 82 79 76 74 68 59 49 54 51 51 54 56 63 56 56 46 40 30 27 35 41 43 44
114 112 112 115 113 110 107 106 102 100 99 99 98 98 98 94 87 87 84 83 78 70 70 70 62 62 62 53 54 57 60 61 60 46 38 36 26 24 26 29 32 35 43
109 114 115 115 115 112 111 109 106 98 97 96 96 96 95 87 81 79 79 77 70 71 65 66 64 67 63 56 63 63 62 57 39 31 30 31 26 25 29 25 27 29 31
109 106 107 112 111 112 114 110 108 100 98 97 94 94 91 84 78 75 73 69 68 68 62 71 67 67 65 64 62 64 60 41 30 26 31 24 24 25 24 23 23 25 27
105 107 107 106 109 110 112 111 105 103 99 98 96 94 89 83 77 72 68 68 65 72 70 75 68 72 69 66 68 61 41 33 27 26 28 21 24 19 17 17 18 18 19
92 102 104 103 107 110 108 106 105 104 100 100 98 95 92 84 77 73 73 73 67 71 70 69 70 69 68 68 58 43 35 32 28 23 27 21 18 16 13 12 11 11 12
85 94 98 103 106 107 105 103 101 101 102 98 98 96 89 84 82 80 83 78 75 74 70 69 72 66 57 47 39 34 31 28 23 19 22 20 17 10 13 10 11 7 2
84 89 92 99 103 106 103 96 93 97 104 101 98 94 89 87 84 83 81 77 72 74 72 68 60 53 48 44 41 37 33 28 24 22 23 23 19 13 11 8 11 4 22
79 82 90 97 99 104 102 98 96 100 104 102 95 91 89 86 81 81 78 75 75 72 70 63 59 55 48 42 36 33 31 29 24 18 21 23 17 9 9 15 15 20 21
Wind_Direction_850mb
220 217 215 213 212 214 217 219 217 219 221 219 227 235 237 251 268 295 317 352 357 5 4 2 20 34 42 42 33 21 17 8 353 337 329 318 320 317 286 289 264 260 342
224 225 218 219 216 220 224 225 225 225 229 232 230 237 245 248 251 269 293 307 309 321 332 328 346 11 36 34 38 35 25 12 353 338 336 324 319 313 305 291 288 283 298
229 225 225 223 221 222 224 227 227 229 230 236 239 242 248 257 260 261 276 290 289 284 290 294 295 299 315 322 337 338 341 340 337 329 315 314 308 312 307 284 279 276 282
234 228 226 228 227 227 228 229 230 232 234 239 244 250 255 252 256 255 257 265 279 279 267 267 274 274 280 290 303 310 317 319 318 316 310 306 304 299 290 289 276 276 263
237 234 229 229 229 229 230 231 233 234 238 242 246 245 254 250 256 262 252 255 258 266 267 263 263 264 269 279 289 294 298 304 304 302 308 303 296 288 268 280 280 287 266
237 237 235 232 230 230 230 230 233 235 238 239 242 247 245 249 252 257 266 258 249 253 259 260 261 267 271 277 283 288 288 286 292 290 299 302 304 298 253 259 266 260 258
239 236 237 236 233 232 234 234 234 234 237 236 239 243 245 251 254 265 269 266 246 245 249 253 260 268 275 280 286 290 289 287 283 273 282 290 279 293 257 257 252 249 247
240 238 238 237 235 234 235 234 232 234 236 234 233 234 250 261 265 265 250 247 250 241 256 258 263 269 275 281 287 287 292 291 288 274 267 269 270 277 274 262 252 254 248
242 240 238 238 238 236 236 237 234 234 237 234 233 227 219 237 245 256 258 246 248 254 256 260 269 271 278 283 285 284 288 283 286 284 274 261 261 269 268 270 271 261 250
242 241 240 239 239 238 238 239 238 238 238 238 235 237 241 250 255 268 263 251 245 252 258 264 260 270 277 278 274 285 288 284 280 281 276 266 255 259 262 258 267 264 255
243 244 242 240 239 238 241 240 239 237 239 241 241 242 244 248 254 256 270 266 267 270 277 270 280 277 274 279 286 281 287 279 288 282 276 270 269 270 265 249 256 262 257
242 243 243 242 242 241 240 242 242 241 242 244 247 245 246 245 246 247 255 267 274 274 277 277 284 280 273 273 282 280 276 276 285 278 282 280 276 278 274 258 248 254 257
242 241 241 241 241 242 242 242 242 243 243 244 245 248 250 252 254 257 259 265 270 277 279 282 277 285 277 278 278 271 265 277 275 277 283 282 284 280 271 265 263 248 249
252 251 246 245 244 244 244 244 244 245 246 246 248 249 251 254 254 254 256 258 263 269 274 275 285 272 277 272 274 280 273 285 272 285 281 278 283 278 268 264 258 252 254
254 253 252 249 248 245 245 245 246 246 246 248 249 250 252 254 256 257 257 256 259 255 265 273 273 278 278 261 265 263 279 285 281 281 280 281 280 271 266 263 256 257 261
252 251 252 252 250 248 246 246 247 247 247 249 251 251 252 253 255 256 256 256 253 254 256 264 267 272 273 277 284 269 283 285 282 279 283 281 278 273 266 258 259 262 260
251 250 252 253 251 250 248 245 246 247 247 248 249 251 253 254 255 257 253 250 252 251 254 258 265 260 269 282 274 277 282 281 277 280 278 273 278 277 263 263 263 258 254
252 251 253 253 253 252 251 248 247 246 246 246 248 250 252 252 253 250 251 252 252 252 253 256 259 267 263 275 268 277 281 277 282 281 276 279 280 278 274 269 268 263 256
250 250 250 252 253 253 252 250 249 248 248 248 249 249 251 250 252 247 250 250 251 250 248 251 257 256 277 269 269 277 279 280 284 277 281 285 284 278 271 266 266 263 262
254 253 251 250 252 253 253 252 251 248 248 248 250 250 249 248 251 250 250 250 249 246 247 254 248 262 265 258 268 274 281 284 282 282 284 286 276 264 259 258 265 272 275
255 254 253 252 252 252 251 250 250 247 246 246 246 247 247 248 250 250 248 247 242 244 248 256 243 259 255 258 265 273 276 270 277 272 274 271 273 275 274 274 267 259 261
256 255 252 250 250 250 250 252 251 250 247 245 245 245 245 246 246 245 243 244 246 247 247 243 254 253 257 256 264 267 259 261 268 272 272 278 277 269 276 277 269 259 265
257 255 254 252 250 250 251 250 249 249 246 244 245 244 243 244 244 241 238 241 247 241 248 248 248 253 254 263 261 251 251 252 259 259 273 275 256 274 255 249 260 259 260
256 255 254 253 252 250 250 248 246 244 244 246 245 244 243 243 241 239 236 238 240 245 246 246 250 256 254 250 252 248 244 243 253 253 257 267 259 245 264 265 252 224 193
259 255 252 250 249 250 250 246 243 242 241 242 243 243 243 242 240 239 236 238 242 242 242 248 247 243 242 242 239 239 236 236 236 247 245 250 242 275 251 251 178 225 312
263 259 255 251 249 248 248 245 242 241 240 242 243 243 240 239 238 236 238 240 238 238 247 243 238 238 238 238 234 231 231 231 229 243 242 225 239 250 235 218 219 293 311